"Pseudo-MPEC" for P12oZh2

Created 2026 Aug 13 15:35:10 UT using Find_Orb

Click here for an explanation of pseudo-MPECs

 
 Astrometry: 
     P12oZh2 0C2016 08 08.51573 21 51 22.726-08 43 51.26   ~88EZ 21.5 wLNEOCPF51
     P12oZh2 0C2016 08 08.52844 21 51 22.090-08 44 18.53   ~88EZ 21.6 wLNEOCPF51
     P12oZh2 0C2016 08 08.54115 21 51 21.444-08 44 46.15   ~88EZ 21.5 wLNEOCPF51
     P12oZh2 0C2021 07 07.41724021 30 09.884+07 00 56.07   ~89Mo 22.72GVNEOCPF51
     P12oZh2 0C2021 07 07.42893921 30 09.772+07 00 45.88   ~89Mo 22.64GVNEOCPF51
     P12oZh2 0C2021 07 07.44061521 30 09.648+07 00 36.06   ~89Mo 23.12GVNEOCPF51
     P12oZh2 0C2021 08 15.38843721 03 55.999-11 02 09.85   ~89Mo 21.33GVNEOCPF51
     P12oZh2 0C2021 08 15.40016221 03 55.255-11 02 35.65   ~89Mo 21.84GVNEOCPF51
     P12oZh2 0C2021 08 15.41187221 03 54.557-11 03 01.39   ~89Mo 21.26GVNEOCPF51
     P12oZh2 0C2021 08 15.42355921 03 53.846-11 03 27.19   ~89Mo 21.40GVNEOCPF51
     P12oZh2 0C2021 09 10.25242620 47 44.607-25 02 13.79   ~89Mo 22.27GVNEOCPF51
     P12oZh2 0C2021 09 10.27441220 47 44.328-25 02 47.80   ~89Mo 21.93GVNEOCPF51
     P12oZh2 0C2021 09 10.28538320 47 44.160-25 03 04.36   ~89Mo 21.74GVNEOCPF51
     P12oZh2 0C2026 07 11.47204620 55 52.416+08 01 52.21   ~88EZ 22.21GVNEOCPF51
     P12oZh2 0C2026 07 11.49589820 55 51.495+08 01 26.54   ~88EZ 22.19GVNEOCPF51
     P12oZh2 0C2026 07 11.50790420 55 51.003+08 01 14.01   ~88EZ 22.11GVNEOCPF51
     P12oZh2 0C2026 07 23.42021620 46 46.796+03 37 36.10   ~88EZ 21.96wXNEOCPF51
     P12oZh2 0C2026 07 23.42933720 46 46.275+03 37 21.34   ~88EZ 21.95wXNEOCPF51
     P12oZh2 0C2026 07 23.44789720 46 45.166+03 36 51.76   ~88EZ 22.01wXNEOCPF51
     P12oZh2*0C2026 08 08.40358820 30 55.568-04 42 53.60   ~88Co 21.64wXNEOCPF51
     P12oZh2 0C2026 08 08.42780220 30 53.976-04 43 44.35   ~88Co 22.24wXNEOCPF51
     P12oZh2 0C2026 08 08.43986120 30 53.197-04 44 09.91   ~88Co 22.03wXNEOCPF51
     P12oZh2 0C2026 08 08.55946820 30 45.598-04 48 19.04   ~88Go 21.70GVNEOCPF51
     P12oZh2 0C2026 08 08.56029320 30 45.522-04 48 20.74   ~88Go 21.84GVNEOCPF51

Station data:
(F51) Pan-STARRS 1, Haleakala  (N20.707234 W156.255910)  US/Hawaii.
   Observers J. Herman, T. Lowe, P. Minguez, A. Schultz, I. Smith, J. Bulger,
   K. Chambers. Measurers K. Chambers, T. de Boer, J. Fairlamb, H. Gao, M.
   Huber, C.-C. Lin, E. Magnier, Y. Ramanjooloo, R. Wainscoat, R. Weryk, S.
   Chastel. 1.8-m Ritchey-Chrétien + CCD.

Orbital elements:  P12oZh2
   Perihelion 2026 Nov 11.133075 +/- 0.00342 TT =  3:11:37.7 (JD 2461355.633075)
Epoch 2026 Aug  8.0 TT = JDT 2461260.5   Earth MOID: 0.6996      AutoNEOCP
M 322.691931936 +/- 0.0013          (J2000 ecliptic)
n   0.392167160 +/- 8.33e-9         Peri.  211.027164 +/- 0.0016
a   1.848510407 +/- 2.62e-8         Node   143.691087 +/- 0.000021
e   0.08250978 +/- 1.86e-6          Incl.   28.168568 +/- 0.00006
P   2.513/917.959d         H 20.67  G  0.15   U  1.3
q 1.695990210 +/- 3.44e-6    Q 2.001030605 +/- 3.42e-6
From 24 observations 2016 Aug. 8-2026 Aug. 8; mean residual 0".17
Residuals in arcseconds: 
160808 F51  .01-  .02-    210815 F51  .14-  .04+    260723 F51  .17-  .18+    
160808 F51  .16+  .14+    210815 F51  .09-  .03-    260723 F51  .05+  .05-    
160808 F51  .16+  .05-    210910 F51  .09-  .19+    260723 F51  .19-  .03-    
210707 F51  .09-  .10+    210910 F51  .21+  .16-    260808 F51  .15+  .16+    
210707 F51  .03+  .00     210910 F51  .01-  .05+    260808 F51  .22-  .04-    
210707 F51  .01+  .26+    260711 F51  .06+  .22+    260808 F51  .21-  .43-    
210815 F51  .01-  .05-    260711 F51  .36+  .31-    260808 F51  .36+  .03-    
210815 F51  .41-  .01-    260711 F51  .11+  .16-    260808 F51  .01-  .01-    

Ephemerides (geocentric):
Date (UTC) HH   RA             Dec           delta  r     elong  mag " sig PA
---- --------  ------------   ------------  ------ ------ -----  --- --------
2026 08 13 16  20 25 50.562   -07 48 19.25  .73513 1.7283 162.4 21.8 .056 153
2026 08 13 17  20 25 48.259   -07 49 48.00  .73518 1.7283 162.4 21.8 .056 153
2026 08 13 18  20 25 45.958   -07 51 16.75  .73523 1.7283 162.4 21.9 .056 153
2026 08 13 19  20 25 43.659   -07 52 45.51  .73527 1.7282 162.4 21.9 .056 153
2026 08 13 20  20 25 41.362   -07 54 14.26  .73532 1.7282 162.3 21.9 .056 153
2026 08 13 21  20 25 39.067   -07 55 43.02  .73537 1.7282 162.3 21.9 .056 153
2026 08 13 22  20 25 36.774   -07 57 11.78  .73542 1.7281 162.3 21.9 .056 153
2026 08 13 23  20 25 34.484   -07 58 40.54  .73547 1.7281 162.2 21.9 .057 153
2026 08 14 00  20 25 32.195   -08 00 09.29  .73552 1.7281 162.2 21.9 .057 153
2026 08 14 01  20 25 29.909   -08 01 38.06  .73557 1.7281 162.2 21.9 .057 153
2026 08 14 02  20 25 27.625   -08 03 06.82  .73562 1.7280 162.1 21.9 .057 153
2026 08 14 03  20 25 25.344   -08 04 35.58  .73567 1.7280 162.1 21.9 .057 152
2026 08 14 04  20 25 23.064   -08 06 04.34  .73572 1.7280 162.1 21.9 .057 152
2026 08 14 05  20 25 20.787   -08 07 33.10  .73577 1.7279 162.1 21.9 .057 152
2026 08 14 06  20 25 18.512   -08 09 01.86  .73582 1.7279 162.0 21.9 .057 152
2026 08 14 07  20 25 16.239   -08 10 30.62  .73588 1.7279 162.0 21.9 .057 152
2026 08 14 08  20 25 13.969   -08 11 59.38  .73593 1.7279 162.0 21.9 .058 152
2026 08 14 09  20 25 11.700   -08 13 28.14  .73598 1.7278 161.9 21.9 .058 152
2026 08 14 10  20 25 09.434   -08 14 56.90  .73604 1.7278 161.9 21.9 .058 152
2026 08 14 11  20 25 07.170   -08 16 25.65  .73609 1.7278 161.9 21.9 .058 152
2026 08 14 12  20 25 04.909   -08 17 54.41  .73615 1.7277 161.8 21.9 .058 152
2026 08 14 13  20 25 02.650   -08 19 23.16  .73620 1.7277 161.8 21.9 .058 152
2026 08 14 14  20 25 00.393   -08 20 51.91  .73626 1.7277 161.8 21.9 .058 152
2026 08 14 15  20 24 58.138   -08 22 20.67  .73631 1.7277 161.7 21.9 .058 152
2026 08 14 16  20 24 55.886   -08 23 49.41  .73637 1.7276 161.7 21.9 .058 152
2026 08 14 17  20 24 53.636   -08 25 18.16  .73643 1.7276 161.7 21.9 .058 152
2026 08 14 18  20 24 51.388   -08 26 46.90  .73649 1.7276 161.6 21.9 .059 151
2026 08 14 19  20 24 49.143   -08 28 15.64  .73654 1.7275 161.6 21.9 .059 151
2026 08 14 20  20 24 46.900   -08 29 44.38  .73660 1.7275 161.6 21.9 .059 151
2026 08 14 21  20 24 44.659   -08 31 13.12  .73666 1.7275 161.5 21.9 .059 151
2026 08 14 22  20 24 42.421   -08 32 41.85  .73672 1.7275 161.5 21.9 .059 151
2026 08 14 23  20 24 40.185   -08 34 10.58  .73678 1.7274 161.5 21.9 .059 151
2026 08 15 00  20 24 37.951   -08 35 39.30  .73684 1.7274 161.4 21.9 .059 151
2026 08 15 01  20 24 35.720   -08 37 08.02  .73690 1.7274 161.4 21.9 .059 151
2026 08 15 02  20 24 33.491   -08 38 36.74  .73696 1.7274 161.4 21.9 .059 151
2026 08 15 03  20 24 31.265   -08 40 05.45  .73703 1.7273 161.3 21.9 .059 151
2026 08 15 04  20 24 29.041   -08 41 34.16  .73709 1.7273 161.3 21.9 .060 151
2026 08 15 05  20 24 26.819   -08 43 02.87  .73715 1.7273 161.3 21.9 .060 151
2026 08 15 06  20 24 24.600   -08 44 31.57  .73721 1.7272 161.2 21.9 .060 151
2026 08 15 07  20 24 22.384   -08 46 00.26  .73728 1.7272 161.2 21.9 .060 151
2026 08 15 08  20 24 20.169   -08 47 28.95  .73734 1.7272 161.2 21.9 .060 151
2026 08 15 09  20 24 17.957   -08 48 57.64  .73741 1.7272 161.1 21.9 .060 151
2026 08 15 10  20 24 15.748   -08 50 26.32  .73747 1.7271 161.1 21.9 .060 150
2026 08 15 11  20 24 13.541   -08 51 54.99  .73754 1.7271 161.1 21.9 .060 150
2026 08 15 12  20 24 11.337   -08 53 23.66  .73760 1.7271 161.0 21.9 .060 150
2026 08 15 13  20 24 09.135   -08 54 52.32  .73767 1.7270 161.0 21.9 .060 150
2026 08 15 14  20 24 06.935   -08 56 20.98  .73774 1.7270 161.0 21.9 .061 150
2026 08 15 15  20 24 04.739   -08 57 49.63  .73780 1.7270 160.9 21.9 .061 150